TimeMDT,TemperatureF,Dew PointF,Humidity,Sea Level PressureIn,VisibilityMPH,Wind Direction,Wind SpeedMPH,Gust SpeedMPH,PrecipitationIn,Events,Conditions,WindDirDegrees,DateUTC
12:53 AM,45.0,21.0,39,29.94,10.0,WSW,9.2,-,N/A,,Clear,250,2013-10-27 06:53:00
1:53 AM,48.0,21.0,34,29.91,10.0,WSW,10.4,-,N/A,,Clear,250,2013-10-27 07:53:00
2:53 AM,46.9,19.0,33,29.89,10.0,West,8.1,-,N/A,,Clear,260,2013-10-27 08:53:00
3:53 AM,48.9,18.0,29,29.86,10.0,West,3.5,-,N/A,,Clear,260,2013-10-27 09:53:00
4:53 AM,48.0,18.0,30,29.84,10.0,WSW,4.6,-,N/A,,Clear,250,2013-10-27 10:53:00
5:53 AM,45.0,18.0,34,29.85,10.0,Calm,Calm,-,N/A,,Clear,0,2013-10-27 11:53:00
6:53 AM,41.0,18.0,40,29.88,10.0,NNW,4.6,-,N/A,,Clear,340,2013-10-27 12:53:00
7:53 AM,41.0,19.9,43,29.90,10.0,WSW,9.2,-,N/A,,Clear,250,2013-10-27 13:53:00
8:53 AM,48.9,25.0,39,29.88,10.0,WSW,4.6,-,N/A,,Clear,250,2013-10-27 14:53:00
9:53 AM,55.9,19.9,25,29.85,10.0,Calm,Calm,-,N/A,,Clear,0,2013-10-27 15:53:00
10:53 AM,55.9,21.9,27,29.84,10.0,Variable,3.5,-,N/A,,Clear,0,2013-10-27 16:53:00
11:53 AM,59.0,25.0,27,29.81,10.0,ESE,6.9,-,N/A,,Clear,110,2013-10-27 17:53:00
12:53 PM,60.1,24.1,25,29.79,10.0,SE,4.6,-,N/A,,Clear,130,2013-10-27 18:53:00
1:53 PM,60.1,25.0,26,29.77,10.0,East,6.9,-,N/A,,Clear,100,2013-10-27 19:53:00
2:53 PM,59.0,27.0,29,29.78,10.0,ENE,9.2,-,N/A,,Clear,60,2013-10-27 20:53:00
3:53 PM,60.1,26.1,27,29.78,10.0,NE,9.2,-,N/A,,Mostly Cloudy,40,2013-10-27 21:53:00
4:53 PM,57.9,24.1,27,29.80,10.0,ENE,5.8,-,N/A,,Clear,70,2013-10-27 22:53:00
5:53 PM,51.1,25.0,36,29.85,10.0,North,3.5,-,N/A,,Unknown,10,2013-10-27 23:53:00
6:53 PM,45.0,27.0,49,29.91,10.0,West,9.2,-,N/A,,Clear,280,2013-10-28 00:53:00
7:53 PM,42.1,27.0,55,29.93,10.0,WSW,5.8,-,N/A,,Scattered Clouds,250,2013-10-28 01:53:00
8:53 PM,45.0,28.0,52,29.93,10.0,NNW,4.6,-,N/A,,Clear,340,2013-10-28 02:53:00
9:53 PM,43.0,28.9,58,29.94,10.0,NNW,8.1,-,N/A,,Clear,340,2013-10-28 03:53:00
10:53 PM,37.9,32.0,79,29.98,10.0,NNW,8.1,-,N/A,,Overcast,340,2013-10-28 04:53:00
11:53 PM,36.0,32.0,86,29.99,10.0,North,6.9,-,N/A,,Mostly Cloudy,360,2013-10-28 05:53:00